PY2KO-13 Weather Reports


Display with metric or nautical units.
time (UTC)temp
F
wind
direction
speed
MPH
gust
MPH
rain 1hr
in
rain 24hr
in
rain mn
in
humidity
%
barometer
mb
20260509164505 82 0.0 0.0 0.00 0.00 0.00 48 1015.5
20260509161505 83 0.0 0.0 0.00 0.00 0.00 48 1015.7
20260509154504 82 0.0 0.0 0.00 0.00 0.00 48 1015.8
20260509151505 83 0.0 0.0 0.00 0.00 0.00 48 1016.3
20260509144505 83 0.0 0.0 0.00 0.00 0.00 49 1016.7
20260509141504 81 0.0 0.0 0.00 0.00 0.00 51 1017.2
20260509134505 80 0.0 0.0 0.00 0.00 0.00 52 1017.4
20260509131505 78 0.0 0.0 0.00 0.00 0.00 55 1017.7
20260509124504 79 0.0 0.0 0.00 0.00 0.00 53 1017.5
20260509121504 78 0.0 0.0 0.00 0.00 0.00 54 1017.1
20260509114505 77 0.0 0.0 0.00 0.00 0.00 56 1016.7
20260509111504 76 0.0 0.0 0.00 0.00 0.00 58 1016.5
20260509104505 76 0.0 0.0 0.00 0.00 0.00 58 1015.5
20260509101505 76 0.0 0.0 0.00 0.00 0.00 56 1015.2
20260509094505 77 0.0 0.0 0.00 0.00 0.00 54 1014.4
20260509091505 77 0.0 0.0 0.00 0.00 0.00 54 1014.2
20260509084504 76 0.0 0.0 0.00 0.00 0.00 55 1013.6
20260509081505 76 0.0 0.0 0.00 0.00 0.00 55 1013.3
20260509074504 77 0.0 0.0 0.00 0.00 0.00 54 1013.4
20260509071504 77 0.0 0.0 0.00 0.00 0.00 55 1013.4
20260509064505 77 0.0 0.0 0.00 0.00 0.00 55 1013.7
20260509061505 77 0.0 0.0 0.00 0.00 0.00 55 1013.5
20260509054504 77 0.0 0.0 0.00 0.00 0.00 55 1013.8
20260509051504 77 0.0 0.0 0.00 0.00 0.00 55 1013.8
20260509044504 77 0.0 0.0 0.00 0.00 0.00 56 1013.9
20260509041504 77 0.0 0.0 0.00 0.00 0.00 56 1014.0
20260509034504 77 0.0 0.0 0.00 0.00 0.00 56 1014.0
20260509031506 77 0.0 0.0 0.00 0.00 0.00 56 1013.9
20260509024504 76 0.0 0.0 0.00 0.00 0.00 58 1014.0
20260509021504 77 0.0 0.0 0.00 0.00 0.00 57 1014.0
20260509014504 76 0.0 0.0 0.00 0.00 0.00 58 1014.1
20260509011505 78 0.0 0.0 0.00 0.00 0.00 55 1014.0
20260509004504 78 0.0 0.0 0.00 0.00 0.00 56 1014.1
20260509001505 79 0.0 0.0 0.00 0.00 0.00 51 1013.9
20260508234504 80 0.0 0.0 0.00 0.00 0.00 50 1013.6
20260508231504 80 0.0 0.0 0.00 0.00 0.00 50 1013.9
20260508224504 80 0.0 0.0 0.00 0.00 0.00 50 1014.0
20260508221504 81 0.0 0.0 0.00 0.00 0.00 50 1013.8
20260508214504 81 0.0 0.0 0.00 0.00 0.00 48 1013.5
20260508211504 81 0.0 0.0 0.00 0.00 0.00 48 1013.4
20260508204504 82 0.0 0.0 0.00 0.00 0.00 47 1013.2
20260508201506 82 0.0 0.0 0.00 0.00 0.00 46 1012.9
20260508194505 82 0.0 0.0 0.00 0.00 0.00 46 1012.7
20260508191505 83 0.0 0.0 0.00 0.00 0.00 45 1012.7